Location: Helsinki
(60.1699°N, 24.9384°E)
Time: 22:42:41
(UTC+02:00)

Transit 2A Rocket - Visible Passes

Search period start: 28 October 2020 00:00
Search period end: 07 November 2020 00:00
Orbit: 586 x 916 km, 66.7° (Epoch: 27 October)

Date Brightness Start Highest point End Pass type
(mag) Time Alt. Az. Time Alt. Az. Time Alt. Az.
28 Oct 5.9 18:04:28 10° NW 18:09:47 50° SW 18:14:36 10° SSE visible
28 Oct 7.7 19:48:40 10° WNW 19:51:07 13° WSW 19:53:29 10° SW visible
29 Oct 5.4 17:21:47 10° NW 17:27:19 68° SW 17:32:17 10° SE visible
29 Oct 7.5 19:05:13 10° WNW 19:09:01 20° WSW 19:12:33 10° SSW visible
30 Oct 7.0 18:22:13 10° WNW 18:26:47 28° WSW 18:30:59 10° S visible
31 Oct 6.5 17:39:25 10° NW 17:44:28 40° WSW 17:49:04 10° SSE visible
01 Nov 7.8 18:40:33 10° WNW 18:43:30 15° WSW 18:46:20 10° SW visible
02 Nov 7.6 17:57:19 10° WNW 18:01:21 22° WSW 18:05:07 10° SSW visible
03 Nov 8.9 07:02:47 10° ESE 07:03:21 10° E 07:03:54 10° E visible
03 Nov 7.1 17:14:23 10° WNW 17:19:06 32° WSW 17:23:25 10° S visible
04 Nov 8.4 18:16:22 10° W 18:17:58 11° WSW 18:19:32 10° WSW visible
05 Nov 8.0 17:32:32 10° WNW 17:35:53 17° WSW 17:39:03 10° SSW visible
06 Nov 8.7 06:35:07 10° SE 06:37:50 13° ESE 06:40:31 10° ENE visible
06 Nov 7.7 16:49:26 10° WNW 16:53:41 25° WSW 16:57:38 10° S visible
